Weather in Bayahibe

Dominican Republic     18°22′05″N   68°50′23″W
temp.,
°C
wind,
m/s
gust,
m/s
humid.,
%
clouds,
%
prec.,
mm/h
press.,
hPa
HPBL,
m
2 december, thu
thu223:00+25ne59835 1.0 1017603
02:00+25ne488323 1.1 1015546
05:00+25ene488551 0.6 1015438
08:00+26ene47801 1.6 1016667
11:00+29ese456435 0.1 1016743
14:00+30se45608 0.1 1014745
17:00+28ese456986 0.0 1013576
20:00+25ne36835 0.0 1015222
3 december, fri
fri323:00+25nne378916 0.1 1015268
02:00+25e348997 0.6 1014136
05:00+24ne368710 0.2 1013233
08:00+25ene36857 0.2 1015266
11:00+29e356395 0.1 1015842
14:00+30e5560100 0.1 1012777
17:00+28e566871 0.0 1012743
20:00+25ne49845 0.0 1014554
4 december, sat
sat423:00+25ne498587 0.0 1015515
02:00+25ne4985100 0.0 1014500
05:00+25ne498473 0.0 1014492
08:00+26ne498070 0.1 1016674
11:00+28ene676572 0.3 10161101
14:00+30e686073 0.3 1014948
17:00+28ene576879 0.0 1014916
20:00+26ene610785 0.0 1016828
5 december, sun
sun523:00+26ene597996 0.1 1016815
02:00+26ne598127 0.2 1015750
05:00+26ene597943 0.1 1015822
08:00+27ene697599 0.1 10171019
11:00+29e6968100 0.2 10181239
14:00+29e786350 0.2 10161062
17:00+27ene687339 0.1 1016864
20:00+25ene368317 0.6 1018229
6 december, mon
mon623:00+26ene7108115 0.1 1018849
02:00+26ene71077100 0.2 1017982
05:00+26ene61178100 0.1 1017923
08:00+27e71171100 0.1 10181088
11:00+28e796583 0.0 10191290
14:00+29e676266 0.0 10161095
17:00+27ene787039 0.0 10151037
20:00+26ene610750 0.1 1016741